Tunica, MS

5:00 PM CST on January 22, 2018 (GMT -0600)
Tunica

Weather History for KUTA - February, 2013

Change the Weather History Date:

Monday, February 18, 2013

  Actual Average (KAWM) Record (KAWM)
Temperature  
Mean Temperature 50 °F -  
Max Temperature 59 °F 53 °F 84 °F (2014)
Min Temperature 42 °F 36 °F 15 °F (1993)
Degree Days  
Heating Degree Days 14    
Moisture  
Dew Point 44 °F    
Average Humidity 77    
Maximum Humidity 94    
Minimum Humidity 63    
Precipitation  
Precipitation 0.68 in - - ()
Sea Level Pressure  
Sea Level Pressure 29.98 in    
Wind  
Wind Speed 16 mph (South)    
Max Wind Speed 26 mph    
Max Gust Speed 38 mph    
Visibility 9 miles    
Events Rain , Thunderstorm    
Averages and records for this station are not official NWS values.
T = Trace of Precipitation, MM = Missing Value Source: NWS Daily Summary

Daily Weather History Graph

Daily Weather History Graph

Search for Another Location

Airport or City:

Trip Planner

Search our weather history database for the weather conditions in past years. The results will help you decide how hot, cold, wet, or windy it might be!

Date:

Astronomy

Feb. 18, 2013 Rise Set
Actual Time 6:43 AM CST 5:47 PM CST
Civil Twilight 6:17 AM CST 6:13 PM CST
Nautical Twilight 5:48 AM CST 6:42 PM CST
Astronomical Twilight 5:19 AM CST 7:12 PM CST
Moon 11:40 AM CST (2/18) 1:16 AM CST (2/18)
Length of Visible Light 11h 55m
Length of Day
11h 04m
First Quarter, 58% of the Moon is Illuminated
Feb 18
First Quarter
Feb 25
Full
Mar 4
Last Quarter
Mar 11
New
Mar 19
First Quarter

Hourly Weather History & Observations

Time (CST) Temp. Windchill Dew Point Humidity Pressure Visibility Wind Dir Wind Speed Gust Speed Precip Events Conditions
12:15 AM 44.6 °F 38.1 °F 33.8 °F 66% 30.09 in 10.0 mi SSE 13.8 mph - N/A   Clear
12:35 AM 44.6 °F 38.4 °F 33.8 °F 66% 30.09 in 10.0 mi SSE 12.7 mph - N/A   Clear
12:55 AM 44.6 °F 38.4 °F 33.8 °F 66% 30.09 in 10.0 mi South 12.7 mph - N/A   Clear
1:15 AM 44.6 °F 38.4 °F 33.8 °F 66% 30.10 in 10.0 mi South 12.7 mph - N/A   Clear
1:35 AM 46.4 °F 40.7 °F 35.6 °F 66% 30.10 in 10.0 mi South 12.7 mph - N/A   Clear
1:55 AM 44.6 °F 38.4 °F 35.6 °F 71% 30.10 in 10.0 mi South 12.7 mph 18.4 mph N/A   Clear
2:35 AM 46.4 °F 40.7 °F 35.6 °F 66% 30.10 in 10.0 mi South 12.7 mph 18.4 mph N/A   Clear
2:55 AM 44.6 °F 38.8 °F 35.6 °F 71% 30.10 in 10.0 mi South 11.5 mph - N/A   Clear
3:15 AM 44.6 °F 39.2 °F 35.6 °F 71% 30.10 in 10.0 mi South 10.4 mph - N/A   Clear
3:35 AM 44.6 °F 38.8 °F 37.4 °F 76% 30.09 in 10.0 mi South 11.5 mph - N/A   Clear
4:15 AM 44.6 °F 38.8 °F 35.6 °F 71% 30.10 in 10.0 mi South 11.5 mph - N/A   Clear
4:35 AM 44.6 °F 39.2 °F 35.6 °F 71% 30.10 in 10.0 mi South 10.4 mph - N/A   Clear
4:55 AM 44.6 °F 38.8 °F 35.6 °F 71% 30.11 in 10.0 mi South 11.5 mph - N/A   Clear
5:15 AM 44.6 °F 38.4 °F 35.6 °F 71% 30.10 in 10.0 mi South 12.7 mph - N/A   Clear
5:35 AM 44.6 °F 37.8 °F 35.6 °F 71% 30.10 in 10.0 mi South 15.0 mph - N/A   Clear
5:55 AM 42.8 °F 36.6 °F 35.6 °F 76% 30.10 in 10.0 mi SSE 11.5 mph - N/A   Clear
6:15 AM 42.8 °F 35.8 °F 35.6 °F 76% 30.10 in 10.0 mi SSE 13.8 mph - N/A   Scattered Clouds
6:35 AM 44.6 °F 37.8 °F 37.4 °F 76% 30.09 in 10.0 mi SSE 15.0 mph - N/A   Mostly Cloudy
6:55 AM 44.6 °F 38.1 °F 37.4 °F 76% 30.09 in 10.0 mi South 13.8 mph - N/A   Mostly Cloudy
7:15 AM 44.6 °F 37.4 °F 37.4 °F 76% 30.09 in 10.0 mi South 16.1 mph - N/A   Mostly Cloudy
7:35 AM 46.4 °F 39.5 °F 37.4 °F 71% 30.09 in 10.0 mi South 17.3 mph - N/A   Mostly Cloudy
8:15 AM 48.2 °F - 37.4 °F 66% 30.09 in 10.0 mi South 20.7 mph 26.5 mph N/A   Scattered Clouds
8:35 AM 50.0 °F - 39.2 °F 66% 30.08 in 10.0 mi South 23.0 mph 29.9 mph N/A   Scattered Clouds
8:55 AM 50.0 °F - 41.0 °F 71% 30.08 in 10.0 mi South 23.0 mph 26.5 mph N/A   Scattered Clouds
9:15 AM 51.8 °F - 41.0 °F 67% 30.08 in 10.0 mi South 19.6 mph 27.6 mph N/A   Scattered Clouds
9:35 AM 51.8 °F - 41.0 °F 67% 30.07 in 10.0 mi South 21.9 mph 32.2 mph N/A   Scattered Clouds
9:55 AM 53.6 °F - 42.8 °F 67% 30.06 in 10.0 mi South 20.7 mph 34.5 mph N/A   Scattered Clouds
10:15 AM 51.8 °F - 42.8 °F 71% 30.06 in 10.0 mi South 23.0 mph 27.6 mph N/A   Mostly Cloudy
10:35 AM 51.8 °F - 44.6 °F 76% 30.05 in 7.0 mi South 20.7 mph 28.8 mph N/A Rain Light Rain
10:55 AM 51.8 °F - 44.6 °F 76% 30.04 in 10.0 mi South 23.0 mph 29.9 mph N/A   Mostly Cloudy
11:15 AM 53.6 °F - 44.6 °F 72% 30.03 in 10.0 mi South 21.9 mph 31.1 mph N/A   Overcast
11:35 AM 55.4 °F - 44.6 °F 67% 30.01 in 10.0 mi South 25.3 mph 33.4 mph N/A   Mostly Cloudy
11:55 AM 55.4 °F - 44.6 °F 67% 30.00 in 10.0 mi South 25.3 mph 32.2 mph N/A   Mostly Cloudy
12:15 PM 53.6 °F - 46.4 °F 77% 29.99 in 7.0 mi South 25.3 mph 38.0 mph N/A Rain Light Rain
12:35 PM 53.6 °F - 46.4 °F 77% 29.97 in 5.0 mi South 23.0 mph 32.2 mph 0.02 in Rain Light Rain
12:55 PM 51.8 °F - 46.4 °F 82% 29.95 in 10.0 mi SSE 18.4 mph 25.3 mph 0.03 in Rain Light Rain
1:15 PM 53.6 °F - 46.4 °F 77% 29.93 in 10.0 mi SSE 23.0 mph 29.9 mph N/A   Overcast
1:35 PM 55.4 °F - 46.4 °F 72% 29.92 in 10.0 mi South 26.5 mph 33.4 mph N/A   Overcast
1:55 PM 55.4 °F - 46.4 °F 72% 29.89 in 10.0 mi SSE 25.3 mph 34.5 mph N/A   Mostly Cloudy
2:15 PM 55.4 °F - 46.4 °F 72% 29.89 in 10.0 mi SSE 24.2 mph 31.1 mph N/A   Scattered Clouds
2:35 PM 59.0 °F - 46.4 °F 63% 29.88 in 10.0 mi South 24.2 mph 32.2 mph N/A   Scattered Clouds
2:55 PM 59.0 °F - 48.2 °F 67% 29.86 in 10.0 mi South 25.3 mph 34.5 mph N/A   Mostly Cloudy
3:15 PM 57.2 °F - 46.4 °F 67% 29.86 in 10.0 mi SSE 24.2 mph 33.4 mph N/A   Mostly Cloudy
3:35 PM 55.4 °F - 48.2 °F 77% 29.85 in 10.0 mi South 23.0 mph 32.2 mph N/A Rain Light Rain
3:55 PM 57.2 °F - 50.0 °F 77% 29.83 in 10.0 mi SSE 23.0 mph 29.9 mph N/A   Overcast
4:15 PM 55.4 °F - 50.0 °F 82% 29.82 in 10.0 mi SSE 17.3 mph 23.0 mph N/A   Overcast
4:35 PM 55.4 °F - 50.0 °F 82% 29.80 in 10.0 mi SSE 19.6 mph 24.2 mph N/A Thunderstorm Overcast
4:55 PM 55.4 °F - 50.0 °F 82% 29.79 in 10.0 mi SSE 19.6 mph 24.2 mph N/A Rain , Thunderstorm Light Thunderstorms and Rain
5:15 PM 55.4 °F - 51.8 °F 88% 29.80 in 4.0 mi South 20.7 mph 27.6 mph 0.05 in Rain , Thunderstorm Thunderstorms and Rain
5:35 PM 55.4 °F - 51.8 °F 88% 29.79 in 5.0 mi South 15.0 mph - 0.12 in Rain Light Rain
5:55 PM 55.4 °F - 51.8 °F 88% 29.79 in 7.0 mi SSE 21.9 mph 31.1 mph 0.13 in Rain Rain
6:15 PM 55.4 °F - 51.8 °F 88% 29.81 in 4.0 mi SSW 16.1 mph 25.3 mph 0.05 in Rain , Thunderstorm Heavy Thunderstorms and Rain
6:35 PM 55.4 °F - 51.8 °F 88% 29.83 in 4.0 mi SSW 18.4 mph 28.8 mph 0.18 in Rain Heavy Rain
6:55 PM 55.4 °F - 51.8 °F 88% 29.82 in 7.0 mi South 20.7 mph 28.8 mph 0.26 in Rain Rain
7:15 PM 55.4 °F - 51.8 °F 88% 29.81 in 10.0 mi South 24.2 mph 36.8 mph N/A Thunderstorm Overcast
7:35 PM 55.4 °F - 51.8 °F 88% 29.82 in 7.0 mi South 21.9 mph 31.1 mph 0.01 in Rain , Thunderstorm Light Thunderstorms and Rain
7:55 PM 53.6 °F - 51.8 °F 94% 29.84 in 7.0 mi South 16.1 mph 25.3 mph 0.03 in Rain , Thunderstorm Thunderstorms and Rain
8:15 PM 53.6 °F - 51.8 °F 94% 29.87 in 2.5 mi SW 18.4 mph 25.3 mph 0.13 in Rain , Thunderstorm Rain
8:35 PM 53.6 °F - 51.8 °F 94% 29.88 in 5.0 mi SSW 16.1 mph - 0.17 in Rain , Thunderstorm Rain
8:55 PM 53.6 °F - 50.0 °F 88% 29.88 in 5.0 mi SSW 15.0 mph - 0.22 in Rain , Thunderstorm Thunderstorms and Rain
9:15 PM 51.8 °F - 50.0 °F 94% 29.87 in 10.0 mi SSW 8.1 mph - 0.01 in Rain , Thunderstorm Light Thunderstorms and Rain
9:55 PM 53.6 °F - 50.0 °F 88% 29.90 in 10.0 mi SW 13.8 mph - 0.01 in   Mostly Cloudy
10:15 PM 53.6 °F - 51.8 °F 94% 29.91 in 10.0 mi SW 13.8 mph - N/A   Overcast
10:35 PM 53.6 °F - 51.8 °F 94% 29.93 in 10.0 mi WSW 9.2 mph - N/A   Overcast
10:55 PM 53.6 °F - 51.8 °F 94% 29.94 in 10.0 mi WNW 18.4 mph - N/A   Overcast
11:15 PM 50.0 °F - 44.6 °F 82% 29.96 in 10.0 mi NW 20.7 mph 28.8 mph N/A   Overcast
11:35 PM 48.2 °F - 42.8 °F 82% 29.98 in 10.0 mi NNW 16.1 mph - N/A   Scattered Clouds
11:55 PM 46.4 °F 39.8 °F 41.0 °F 81% 29.99 in 10.0 mi NW 16.1 mph 23.0 mph N/A   Clear